Flag for Switzerland Weather past 2 weeks in Kriens, Lucerne, Switzerland

Now
70 °F

Mild.


Feels Like: 73 °F
Forecast: 61 / 89 °F
Wind: 1 mph from Northeast

Location: Giswil

Current Time: Aug 29, 2015 at 11:55:57 AM

Latest Report: Aug 29, 2015 at 10:00 AM


Visibility: N/A

Pressure: 30.17 "Hg

Humidity: 74%

Dew point: 61 °F

Location of KriensLocation

Historic Weather in Kriens — Graph

°F

Kriens temperature yesterday

Maximum temperature yesterday: 85 °F (at 5:00 PM)
Minimum temperature yesterday: 57 °F (at 4:00 AM)
Average temperature yesterday: 70 °F

Past Weeks' High & Low Weather Summary

 TemperatureHumidityPressure
High85 °F (Aug 28, 5:00 PM)100% (Aug 15, 5:00 AM)30.29 "Hg (Aug 15, 5:00 AM)
Low47 °F (Aug 20, 7:00 AM)42% (Aug 27, 2:00 PM)29.70 "Hg (Aug 24, 2:00 PM)
Average62 °F83%30.00 "Hg
* Reported Aug 14 9:00 AM — Aug 29 9:00 AM, Kriens, Weather by CustomWeather, © 2015

Note: Actual official high and low records may vary slightly from our data, if they occured in-between our weather recording intervals... More about our weather records

Advertising

Kriens weather history for previous 24 hours

 ConditionsComfort  
Time TempWeatherWind HumidityBarometerVisibility
9:00 AM
Sat, Aug 29
67 °FMild.No wind85%30.18 "HgN/A
7:00 AM56 °FCool.3 mph99%30.20 "HgN/A
4:00 AM59 °FCool.1 mph97%30.18 "HgN/A
3:00 AM59 °FCool.1 mph98%30.18 "HgN/A
2:00 AM60 °FCool.2 mph96%30.19 "HgN/A
1:00 AM61 °FCool.2 mph94%30.19 "HgN/A
10:00 PM
Fri, Aug 28
66 °FMild.1 mph87%30.13 "HgN/A
9:00 PM67 °FMild.5 mph88%30.11 "HgN/A
8:00 PM73 °FMild.3 mph75%30.07 "HgN/A
7:00 PM80 °FWarm.3 mph58%30.04 "HgN/A
6:00 PM85 °FWarm.1 mph47%30.02 "HgN/A
5:00 PM85 °FWarm.1 mph44%30.01 "HgN/A
4:00 PM84 °FWarm.1 mph42%30.02 "HgN/A
2:00 PM81 °FWarm.2 mph47%30.04 "HgN/A
1:00 PM79 °FWarm.2 mph51%30.05 "HgN/A
12:00 PM77 °FMild.1 mph53%30.05 "HgN/A
11:00 AM72 °FMild.No wind65%30.06 "HgN/A
Weather by CustomWeather, © 2015

See weather overviewHow to use our weather pages